Location: Unspecified
(0.0000°N, 0.0000°E)
Time: 03:15:13
(UTC+00:00)

Vanguard 2 Rocket - Pass Details

Date: 21 October 2025
Orbit: 554 x 3288 km, 32.9° (Epoch: 06 November)

Event Time Altitude Azimuth Distance (km) Brightness Sun altitude
Rises 07:25:02 0° 313° (NW) 7,214 11.0 24.6°
Reaches altitude 10° 07:30:26 10° 317° (NW) 6,048 10.7 25.9°
Maximum altitude 07:47:50 54° 30° (NNE) 2,743 9.9 30.2°
Drops below altitude 10° 07:58:30 10° 104° (ESE) 3,887 11.6 32.8°
Sets 08:01:08 0° 109° (ESE) 4,570 11.6 33.4°
